Weather History for Phillips, WI

Change the Weather History Date:

Tuesday, January 1, 2013

  Actual Average Record
Temperature  
Mean Temperature 2 °F -  
Max Temperature 15 °F 22 °F 37 °F (1998)
Min Temperature -11 °F 7 °F -25 °F (1999)
Degree Days  
Heating Degree Days 63    
Moisture  
Dew Point -2 °F    
Average Humidity 76    
Maximum Humidity 92    
Minimum Humidity 49    
Precipitation  
Precipitation 0.00 in - - ()
Sea Level Pressure  
Sea Level Pressure 30.08 in    
Wind  
Wind Speed 3 mph (SW)    
Max Wind Speed 12 mph    
Max Gust Speed 18 mph    
Visibility 9 miles    
Events Snow    
Averages and records for this station are not official NWS values.
T = Trace of Precipitation, MM = Missing Value Source: NWS Daily Summary

Daily Weather History Graph

Daily Weather History Graph

Search for Another Location

Airport:

Trip Planner

Search our weather history database for the weather conditions in past years. The results will help you decide how hot, cold, wet, or windy it might be!

Date:

Astronomy

Jan. 01, 2013 Rise Set
Actual Time 7:42 AM CST 4:28 PM CST
Civil Twilight 7:08 AM CST 5:02 PM CST
Nautical Twilight 6:30 AM CST 5:40 PM CST
Astronomical Twilight 5:54 AM CST 6:16 PM CST
Moon 9:14 PM CST (1/1) 9:41 AM CST (1/1)
Length of Visible Light 9h 54m
Length of Day
8h 45m
Waning Gibbous, 83% of the Moon is Illuminated
Jan 1
Waning Gibbous
Jan 4
Last Quarter
Jan 11
New
Jan 18
First Quarter
Jan 26
Full

Hourly Weather History & Observations

Time (CST) Temp. Windchill Dew Point Humidity Pressure Visibility Wind Dir Wind Speed Gust Speed Precip Events Conditions
12:15 AM -0.4 °F -8.3 °F -4.0 °F 85% 30.13 in 10.0 mi WNW 3.5 mph - N/A   Unknown
12:35 AM -0.4 °F - -4.0 °F 85% 30.13 in 10.0 mi Calm Calm - N/A   Unknown
12:55 AM -0.4 °F - -4.0 °F 85% 30.13 in 10.0 mi Calm Calm - N/A   Unknown
1:15 AM -0.4 °F - -4.0 °F 85% 30.13 in 10.0 mi Calm Calm - N/A Snow Light Snow
1:35 AM -2.2 °F -10.4 °F -4.0 °F 92% 30.13 in 1.8 mi WNW 3.5 mph - N/A Snow Light Snow
2:15 AM -5.8 °F - -9.4 °F 84% 30.14 in 7.0 mi Calm Calm - N/A   Unknown
2:35 AM -5.8 °F - -7.6 °F 92% 30.14 in 1.8 mi Calm Calm - N/A Snow Light Snow
3:15 AM -7.6 °F - -9.4 °F 92% 30.14 in 10.0 mi Calm Calm - N/A   Unknown
3:35 AM -7.6 °F - -11.2 °F 84% 30.14 in 4.0 mi Calm Calm - N/A   Mist
3:55 AM -7.6 °F - -11.2 °F 84% 30.14 in 2.5 mi Calm Calm - N/A Snow Light Snow
4:15 AM -7.6 °F - -11.2 °F 84% 30.15 in 10.0 mi Calm Calm - N/A   Unknown
4:35 AM -7.6 °F - -11.2 °F 84% 30.15 in 10.0 mi Calm Calm - N/A   Unknown
5:15 AM -9.4 °F - -14.8 °F 77% 30.15 in 1.5 mi Calm Calm - N/A Snow Light Snow
5:35 AM -9.4 °F - -14.8 °F 77% 30.16 in 1.0 mi Calm Calm - N/A Snow Light Snow
5:55 AM -9.4 °F - -14.8 °F 77% 30.16 in 10.0 mi Calm Calm - N/A   Unknown
6:15 AM -9.4 °F - -14.8 °F 77% 30.16 in 10.0 mi Calm Calm - N/A   Unknown
6:35 AM -11.2 °F - -14.8 °F 84% 30.16 in 10.0 mi Calm Calm - N/A   Unknown
6:55 AM -11.2 °F - -14.8 °F 84% 30.16 in 10.0 mi Calm Calm - N/A   Unknown
7:15 AM -11.2 °F - -14.8 °F 84% 30.16 in 10.0 mi Calm Calm - N/A   Unknown
7:35 AM -11.2 °F - -14.8 °F 84% 30.16 in 10.0 mi Calm Calm - N/A   Unknown
7:55 AM -11.2 °F - -16.6 °F 77% 30.16 in 10.0 mi Calm Calm - N/A   Unknown
8:15 AM -11.2 °F - -14.8 °F 84% 30.16 in 10.0 mi Calm Calm - N/A   Unknown
8:35 AM -9.4 °F - -13.0 °F 84% 30.15 in 10.0 mi Calm Calm - N/A   Unknown
8:55 AM -5.8 °F - -9.4 °F 84% 30.15 in - Calm Calm - N/A   Unknown
9:15 AM -4.0 °F - -7.6 °F 85% 30.14 in 10.0 mi Calm Calm - N/A   Unknown
9:35 AM -0.4 °F -8.3 °F -5.8 °F 78% 30.14 in 10.0 mi SW 3.5 mph - N/A   Unknown
9:55 AM 1.4 °F -6.2 °F -2.2 °F 85% 30.14 in 10.0 mi SW 3.5 mph - N/A   Unknown
10:15 AM 3.2 °F -4.2 °F -0.4 °F 85% 30.14 in 10.0 mi SW 3.5 mph - N/A   Clear
10:35 AM 5.0 °F -5.6 °F 1.4 °F 85% 30.13 in 10.0 mi SW 5.8 mph - N/A   Clear
10:55 AM 6.8 °F -3.5 °F 1.4 °F 79% 30.12 in 10.0 mi SW 5.8 mph - N/A   Clear
11:15 AM 8.6 °F 0.1 °F 1.4 °F 73% 30.11 in 10.0 mi SW 4.6 mph - N/A   Clear
11:35 AM 10.4 °F 2.2 °F 1.4 °F 67% 30.10 in 10.0 mi West 4.6 mph - N/A   Clear
11:55 AM 10.4 °F 0.8 °F -0.4 °F 62% 30.08 in 10.0 mi WSW 5.8 mph - N/A   Clear
12:15 PM 12.2 °F 2.9 °F -0.4 °F 57% 30.07 in 10.0 mi WSW 5.8 mph - N/A   Clear
12:35 PM 12.2 °F 1.7 °F -0.4 °F 57% 30.06 in 10.0 mi WSW 6.9 mph - N/A   Clear
12:55 PM 14.0 °F 2.9 °F -0.4 °F 53% 30.05 in 10.0 mi WSW 8.1 mph - N/A   Clear
1:15 PM 14.0 °F 3.9 °F -0.4 °F 53% 30.04 in 10.0 mi SW 6.9 mph - N/A   Clear
1:35 PM 15.8 °F 5.1 °F -0.4 °F 49% 30.03 in 10.0 mi WSW 8.1 mph - N/A   Clear
1:55 PM 15.8 °F 7.2 °F -0.4 °F 49% 30.03 in 10.0 mi West 5.8 mph - N/A   Clear
2:15 PM 15.8 °F 4.2 °F -0.4 °F 49% 30.03 in 10.0 mi SW 9.2 mph - N/A   Clear
2:35 PM 15.8 °F 4.2 °F -0.4 °F 49% 30.03 in 10.0 mi SW 9.2 mph - N/A   Clear
2:55 PM 15.8 °F 4.2 °F -0.4 °F 49% 30.03 in 10.0 mi SSW 9.2 mph - N/A   Clear
3:15 PM 14.0 °F 2.0 °F 1.4 °F 57% 30.04 in 10.0 mi SW 9.2 mph - N/A   Clear
3:35 PM 14.0 °F 0.5 °F 1.4 °F 57% 30.04 in 10.0 mi WSW 11.5 mph 16.1 mph N/A   Clear
3:55 PM 12.2 °F 0.7 °F -0.4 °F 57% 30.05 in 10.0 mi WSW 8.1 mph 18.4 mph N/A   Clear
4:15 PM 12.2 °F 0.7 °F -0.4 °F 57% 30.05 in 10.0 mi SW 8.1 mph - N/A   Clear
4:35 PM 10.4 °F 2.2 °F 1.4 °F 67% 30.04 in 10.0 mi SW 4.6 mph - N/A   Unknown
4:55 PM 12.2 °F 1.7 °F 1.4 °F 62% 30.04 in 10.0 mi SW 6.9 mph - N/A   Unknown
5:15 PM 12.2 °F 2.9 °F 3.2 °F 67% 30.04 in 10.0 mi SW 5.8 mph - N/A Snow Light Snow
5:35 PM 12.2 °F 0.7 °F 3.2 °F 67% 30.03 in 10.0 mi WSW 8.1 mph - N/A Snow Light Snow
5:55 PM 12.2 °F 1.7 °F 5.0 °F 73% 30.04 in 7.0 mi WSW 6.9 mph - N/A Snow Light Snow
6:15 PM 12.2 °F 1.7 °F 6.8 °F 79% 30.03 in 7.0 mi WSW 6.9 mph - N/A Snow Light Snow
6:35 PM 12.2 °F 1.7 °F 6.8 °F 79% 30.03 in 7.0 mi SW 6.9 mph - N/A Snow Light Snow
6:55 PM 12.2 °F -0.2 °F 6.8 °F 79% 30.03 in 7.0 mi WSW 9.2 mph - N/A Snow Light Snow
7:15 PM 12.2 °F 0.7 °F 8.6 °F 85% 30.02 in 10.0 mi SW 8.1 mph - N/A Snow Light Snow
7:35 PM 12.2 °F 0.7 °F 8.6 °F 85% 30.02 in 10.0 mi SW 8.1 mph - N/A Snow Light Snow
7:55 PM 12.2 °F 2.9 °F 8.6 °F 85% 30.02 in 10.0 mi WSW 5.8 mph - N/A Snow Light Snow
8:15 PM 12.2 °F 1.7 °F 8.6 °F 85% 30.02 in 10.0 mi WSW 6.9 mph - N/A Snow Light Snow
8:35 PM 12.2 °F 2.9 °F 8.6 °F 85% 30.01 in 10.0 mi WSW 5.8 mph - N/A Snow Light Snow
8:55 PM 12.2 °F 1.7 °F 8.6 °F 85% 30.01 in 10.0 mi SW 6.9 mph - N/A Snow Light Snow
9:15 PM 12.2 °F 0.7 °F 8.6 °F 85% 30.01 in 10.0 mi WSW 8.1 mph - N/A Snow Light Snow
9:35 PM 12.2 °F 4.3 °F 8.6 °F 85% 30.01 in 10.0 mi WSW 4.6 mph - N/A   Unknown
9:55 PM 12.2 °F 2.9 °F 8.6 °F 85% 30.01 in 10.0 mi SW 5.8 mph - N/A Snow Light Snow
10:15 PM 12.2 °F 4.3 °F 8.6 °F 85% 30.00 in 10.0 mi SW 4.6 mph - N/A   Overcast
10:35 PM 12.2 °F 2.9 °F 8.6 °F 85% 30.00 in 10.0 mi SW 5.8 mph - N/A   Unknown
10:55 PM 12.2 °F 4.3 °F 8.6 °F 85% 30.00 in 10.0 mi SW 4.6 mph - N/A   Unknown
11:15 PM 12.2 °F 4.3 °F 10.4 °F 92% 29.99 in 10.0 mi SW 4.6 mph - N/A   Overcast
11:35 PM 12.2 °F 6.1 °F 10.4 °F 92% 29.99 in 10.0 mi SW 3.5 mph - N/A   Overcast
11:55 PM 12.2 °F 6.1 °F 10.4 °F 92% 29.99 in 10.0 mi WSW 3.5 mph - N/A   Unknown